Tampa Macdill AFB, FL

7:56 PM EST on December 12, 2017 (GMT -0500)
MacDill Air Force Base

Weather History for KMCF - September, 2012

Change the Weather History Date:

Tuesday, September 18, 2012

  Actual Average Record
Temperature  
Mean Temperature 76 °F -  
Max Temperature 81 °F 86 °F 94 °F (2016)
Min Temperature 71 °F 73 °F 69 °F (2003)
Cooling Degree Days 10    
Growing Degree Days 26 (Base 50)    
Moisture  
Dew Point 75 °F    
Average Humidity 99    
Maximum Humidity 100    
Minimum Humidity 89    
Precipitation  
Precipitation 2.71 in - - ()
Sea Level Pressure  
Sea Level Pressure 29.94 in    
Wind  
Wind Speed 11 mph (WNW)    
Max Wind Speed 24 mph    
Max Gust Speed 36 mph    
Visibility 5 miles    
Events Fog , Rain , Thunderstorm    
Averages and records for this station are not official NWS values.
T = Trace of Precipitation, MM = Missing Value Source: NWS Daily Summary

Daily Weather History Graph

Daily Weather History Graph

Search for Another Location

Airport or City:

Trip Planner

Search our weather history database for the weather conditions in past years. The results will help you decide how hot, cold, wet, or windy it might be!

Date:

Astronomy

Sep. 18, 2012 Rise Set
Actual Time 7:16 AM EDT 7:30 PM EDT
Civil Twilight 6:53 AM EDT 7:54 PM EDT
Nautical Twilight 6:26 AM EDT 8:21 PM EDT
Astronomical Twilight 5:58 AM EDT 8:48 PM EDT
Moon 9:54 AM EDT (9/18) 9:15 PM EDT (9/18)
Length of Visible Light 13h 00m
Length of Day
12h 13m
Waxing Crescent, 9% of the Moon is Illuminated
Sep 18
Waxing Crescent
Sep 22
First Quarter
Sep 29
Full
Oct 8
Last Quarter
Oct 15
New

Hourly Weather History & Observations

Time (EDT) Temp. Heat Index Dew Point Humidity Pressure Visibility Wind Dir Wind Speed Gust Speed Precip Events Conditions
12:55 AM 78.3 °F - 77.5 °F 98% 29.94 in 10.0 mi SW 10.4 mph - N/A   Clear
1:55 AM 77.2 °F - 77.2 °F 100% 29.94 in 10.0 mi SW 10.4 mph - N/A   Clear
2:55 AM 77.0 °F - 77.0 °F 100% 29.92 in 10.0 mi SW 12.7 mph - N/A   Partly Cloudy
3:55 AM 77.2 °F - 77.2 °F 100% 29.90 in 10.0 mi SW 11.5 mph - N/A   Partly Cloudy
4:40 AM 77.0 °F - 77.0 °F 100% 29.90 in 6.0 mi WSW 9.2 mph - N/A   Clear
4:43 AM 77.0 °F - 77.0 °F 100% 29.90 in 7.0 mi WSW 8.1 mph - N/A   Clear
4:55 AM 77.0 °F - 77.0 °F 100% 29.90 in 10.0 mi WSW 8.1 mph - N/A   Scattered Clouds
5:55 AM 77.0 °F - 77.0 °F 100% 29.90 in 10.0 mi WSW 9.2 mph - N/A   Partly Cloudy
6:55 AM 77.0 °F - 77.0 °F 100% 29.91 in 10.0 mi WSW 6.9 mph - N/A   Clear
7:43 AM 77.0 °F - 77.0 °F 100% 29.90 in 10.0 mi SW 12.7 mph - N/A Rain , Thunderstorm Light Rain
7:52 AM 77.0 °F - 77.0 °F 100% 29.90 in 10.0 mi SW 11.5 mph - N/A Rain , Thunderstorm Light Thunderstorms and Rain
7:55 AM 77.9 °F - 77.9 °F 100% 29.90 in 10.0 mi WSW 9.2 mph - 0.00 in Rain , Thunderstorm Light Thunderstorms and Rain
7:59 AM 78.8 °F - 78.8 °F 100% 29.90 in 10.0 mi SW 6.9 mph - N/A Thunderstorm Thunderstorm
8:07 AM 78.8 °F - 78.8 °F 100% 29.91 in 10.0 mi SW 10.4 mph - N/A Rain , Thunderstorm Light Thunderstorms and Rain
8:18 AM 78.8 °F - 78.8 °F 100% 29.91 in 10.0 mi WSW 8.1 mph - N/A Thunderstorm Thunderstorm
8:24 AM 78.8 °F - 78.8 °F 100% 29.92 in 10.0 mi WSW 9.2 mph - N/A Thunderstorm Partly Cloudy
8:39 AM 80.6 °F 89.3 °F 80.6 °F 100% 29.93 in 10.0 mi WSW 11.5 mph - N/A Rain Light Rain
8:50 AM 78.8 °F - 77.0 °F 94% 29.93 in 4.0 mi West 13.8 mph 25.3 mph N/A Rain Light Rain
8:55 AM 78.6 °F - 77.4 °F 96% 29.93 in 4.0 mi West 8.1 mph - 0.07 in Rain Light Rain
9:01 AM 77.0 °F - 77.0 °F 100% 29.93 in 6.0 mi West 10.4 mph - N/A   Partly Cloudy
9:03 AM 77.0 °F - 77.0 °F 100% 29.93 in 7.0 mi West 10.4 mph - N/A   Partly Cloudy
9:55 AM 78.8 °F - 78.6 °F 99% 29.92 in 10.0 mi West 8.1 mph - 0.00 in   Partly Cloudy
10:04 AM 78.8 °F - 78.8 °F 100% 29.93 in 10.0 mi West 9.2 mph - N/A Thunderstorm Thunderstorm
10:25 AM 80.6 °F 89.3 °F 80.6 °F 100% 29.94 in 10.0 mi West 11.5 mph - N/A Rain , Thunderstorm Light Thunderstorms and Rain
10:34 AM 80.6 °F 87.1 °F 77.0 °F 89% 29.94 in 5.0 mi NW 5.8 mph - N/A Rain , Thunderstorm Light Thunderstorms and Rain
10:44 AM 78.8 °F - 77.0 °F 94% 29.96 in 2.5 mi WNW 21.9 mph 32.2 mph N/A Rain , Thunderstorm Heavy Thunderstorms and Rain
10:46 AM 77.0 °F - 75.2 °F 94% 29.96 in 1.5 mi NNW 24.2 mph 35.7 mph N/A Rain , Thunderstorm Heavy Thunderstorms and Rain
10:47 AM 77.0 °F - 75.2 °F 94% 29.95 in 1.2 mi NNW 23.0 mph 35.7 mph N/A Rain , Thunderstorm Heavy Thunderstorms and Rain
10:48 AM 77.0 °F - 75.2 °F 94% 29.95 in 1.0 mi NW 16.1 mph 35.7 mph N/A Rain , Thunderstorm Heavy Thunderstorms and Rain
10:49 AM 77.0 °F - 75.2 °F 94% 29.95 in 0.8 mi NW 11.5 mph 35.7 mph N/A Rain , Thunderstorm Heavy Thunderstorms and Rain
10:52 AM 75.2 °F - 73.4 °F 94% 29.95 in 0.5 mi West 6.9 mph 35.7 mph N/A Fog , Rain , Thunderstorm Heavy Thunderstorms and Rain
10:53 AM 75.2 °F - 73.4 °F 94% 29.94 in 0.5 mi West 8.1 mph 35.7 mph N/A Fog , Rain , Thunderstorm Heavy Thunderstorms and Rain
10:55 AM 75.4 °F - 73.9 °F 95% 29.94 in 0.5 mi WNW 12.7 mph 35.7 mph 0.73 in Fog , Rain , Thunderstorm Heavy Thunderstorms and Rain
10:58 AM 75.2 °F - 75.2 °F 100% 29.94 in 0.8 mi NW 8.1 mph - N/A Rain , Thunderstorm Thunderstorms and Rain
10:59 AM 75.2 °F - 75.2 °F 100% 29.94 in 0.8 mi NW 6.9 mph - N/A Rain , Thunderstorm Thunderstorms and Rain
11:00 AM 75.2 °F - 75.2 °F 100% 29.94 in 0.8 mi WNW 5.8 mph - N/A Rain , Thunderstorm Light Thunderstorms and Rain
11:01 AM 75.2 °F - 75.2 °F 100% 29.94 in 1.0 mi WNW 6.9 mph - N/A Rain , Thunderstorm Light Thunderstorms and Rain
11:03 AM 75.2 °F - 75.2 °F 100% 29.94 in 1.2 mi WNW 8.1 mph - N/A Rain , Thunderstorm Light Thunderstorms and Rain
11:04 AM 75.2 °F - 75.2 °F 100% 29.94 in 1.5 mi WNW 9.2 mph - N/A Rain , Thunderstorm Light Thunderstorms and Rain
11:05 AM 75.2 °F - 75.2 °F 100% 29.94 in 2.0 mi WNW 9.2 mph - N/A Rain , Thunderstorm Light Thunderstorms and Rain
11:06 AM 75.2 °F - 75.2 °F 100% 29.94 in 3.0 mi WNW 9.2 mph - N/A Thunderstorm Mostly Cloudy
11:07 AM 75.2 °F - 75.2 °F 100% 29.95 in 5.0 mi WNW 8.1 mph - N/A Thunderstorm Scattered Clouds
11:38 AM 75.2 °F - 73.4 °F 94% 29.96 in 2.5 mi NNW 19.6 mph 31.1 mph N/A Rain , Thunderstorm Heavy Thunderstorms and Rain
11:40 AM 75.2 °F - 73.4 °F 94% 29.97 in 1.5 mi NNW 15.0 mph 31.1 mph N/A Rain , Thunderstorm Heavy Thunderstorms and Rain
11:41 AM 75.2 °F - 73.4 °F 94% 29.97 in 1.2 mi NW 13.8 mph 31.1 mph N/A Rain , Thunderstorm Heavy Thunderstorms and Rain
11:42 AM 75.2 °F - 73.4 °F 94% 29.98 in 1.0 mi NW 13.8 mph 31.1 mph N/A Rain , Thunderstorm Heavy Thunderstorms and Rain
11:43 AM 75.2 °F - 73.4 °F 94% 29.98 in 1.0 mi NW 16.1 mph 31.1 mph N/A Rain , Thunderstorm Heavy Thunderstorms and Rain
11:44 AM 75.2 °F - 73.4 °F 94% 29.97 in 0.8 mi NW 21.9 mph 31.1 mph N/A Rain , Thunderstorm Heavy Thunderstorms and Rain
11:45 AM 75.2 °F - 73.4 °F 94% 29.98 in 0.5 mi NW 20.7 mph 31.1 mph N/A Fog , Rain , Thunderstorm Heavy Thunderstorms and Rain
11:46 AM 73.4 °F - 73.4 °F 100% 29.98 in 0.5 mi NW 17.3 mph 29.9 mph N/A Fog , Rain , Thunderstorm Heavy Thunderstorms and Rain
11:47 AM 73.4 °F - 73.4 °F 100% 29.98 in 0.5 mi NW 15.0 mph 29.9 mph N/A Fog , Rain , Thunderstorm Heavy Thunderstorms and Rain
11:50 AM 73.4 °F - 73.4 °F 100% 29.98 in 0.5 mi WNW 11.5 mph 29.9 mph N/A Fog , Rain , Thunderstorm Heavy Thunderstorms and Rain
11:51 AM 73.4 °F - 73.4 °F 100% 29.98 in 0.5 mi WNW 12.7 mph 29.9 mph N/A Fog , Rain , Thunderstorm Heavy Thunderstorms and Rain
11:52 AM 73.4 °F - 73.4 °F 100% 29.98 in 0.5 mi WNW 13.8 mph 29.9 mph N/A Fog , Rain , Thunderstorm Heavy Thunderstorms and Rain
11:54 AM 73.4 °F - 73.4 °F 100% 29.98 in 0.8 mi WNW 17.3 mph 29.9 mph N/A Rain , Thunderstorm Heavy Thunderstorms and Rain
11:55 AM 73.4 °F - 73.0 °F 99% 29.98 in 1.0 mi WNW 15.0 mph 21.9 mph 0.66 in Rain , Thunderstorm Heavy Thunderstorms and Rain
11:56 AM 73.4 °F - 73.4 °F 100% 29.98 in 1.2 mi WNW 13.8 mph 21.9 mph N/A Rain , Thunderstorm Heavy Thunderstorms and Rain
11:57 AM 73.4 °F - 73.4 °F 100% 29.97 in 1.8 mi WNW 13.8 mph 21.9 mph N/A Rain , Thunderstorm Heavy Thunderstorms and Rain
11:58 AM 73.4 °F - 73.4 °F 100% 29.97 in 2.5 mi WNW 13.8 mph 21.9 mph N/A Rain , Thunderstorm Heavy Thunderstorms and Rain
11:59 AM 73.4 °F - 73.4 °F 100% 29.97 in 4.0 mi WNW 13.8 mph 21.9 mph N/A Rain , Thunderstorm Heavy Thunderstorms and Rain
12:02 PM 73.4 °F - 73.4 °F 100% 29.96 in 2.5 mi WNW 10.4 mph 21.9 mph N/A Rain , Thunderstorm Heavy Thunderstorms and Rain
12:05 PM 73.4 °F - 73.4 °F 100% 29.96 in 2.0 mi NW 9.2 mph 21.9 mph N/A Rain , Thunderstorm Heavy Thunderstorms and Rain
12:06 PM 73.4 °F - 73.4 °F 100% 29.95 in 1.8 mi NW 9.2 mph 21.9 mph N/A Rain , Thunderstorm Heavy Thunderstorms and Rain
12:07 PM 73.4 °F - 73.4 °F 100% 29.95 in 1.8 mi WNW 11.5 mph 21.9 mph N/A Rain , Thunderstorm Heavy Thunderstorms and Rain
12:09 PM 73.4 °F - 73.4 °F 100% 29.95 in 1.5 mi WNW 11.5 mph 21.9 mph N/A Rain , Thunderstorm Heavy Thunderstorms and Rain
12:11 PM 73.4 °F - 73.4 °F 100% 29.95 in 1.5 mi WNW 9.2 mph 18.4 mph N/A Rain , Thunderstorm Heavy Thunderstorms and Rain
12:12 PM 73.4 °F - 73.4 °F 100% 29.95 in 1.8 mi WNW 9.2 mph 18.4 mph N/A Rain , Thunderstorm Heavy Thunderstorms and Rain
12:13 PM 73.4 °F - 73.4 °F 100% 29.95 in 2.0 mi WNW 9.2 mph 18.4 mph N/A Rain , Thunderstorm Thunderstorms and Rain
12:16 PM 73.4 °F - 73.4 °F 100% 29.95 in 3.0 mi WNW 9.2 mph 18.4 mph N/A Rain , Thunderstorm Light Thunderstorms and Rain
12:19 PM 73.4 °F - 73.4 °F 100% 29.95 in 4.0 mi NW 9.2 mph - N/A Rain , Thunderstorm Light Thunderstorms and Rain
12:24 PM 75.2 °F - 75.2 °F 100% 29.97 in 2.5 mi WNW 24.2 mph 34.5 mph N/A Rain , Thunderstorm Thunderstorms and Rain
12:25 PM 75.2 °F - 75.2 °F 100% 29.97 in 2.0 mi NW 23.0 mph 34.5 mph N/A Rain , Thunderstorm Heavy Thunderstorms and Rain
12:27 PM 75.2 °F - 75.2 °F 100% 29.96 in 1.8 mi NW 20.7 mph 34.5 mph N/A Rain , Thunderstorm Heavy Thunderstorms and Rain
12:29 PM 75.2 °F - 75.2 °F 100% 29.96 in 1.5 mi NW 18.4 mph 34.5 mph N/A Rain , Thunderstorm Heavy Thunderstorms and Rain
12:30 PM 73.4 °F - 73.4 °F 100% 29.95 in 1.2 mi NW 16.1 mph 34.5 mph N/A Rain , Thunderstorm Heavy Thunderstorms and Rain
12:31 PM 73.4 °F - 73.4 °F 100% 29.95 in 1.2 mi NW 16.1 mph 34.5 mph N/A Rain , Thunderstorm Heavy Thunderstorms and Rain
12:34 PM 73.4 °F - 73.4 °F 100% 29.96 in 1.2 mi WNW 9.2 mph 32.2 mph N/A Rain , Thunderstorm Thunderstorms and Rain
12:35 PM 73.4 °F - 73.4 °F 100% 29.96 in 1.2 mi WNW 6.9 mph 32.2 mph N/A Rain , Thunderstorm Thunderstorms and Rain
12:36 PM 73.4 °F - 73.4 °F 100% 29.96 in 1.5 mi WNW 5.8 mph - N/A Rain , Thunderstorm Thunderstorms and Rain
12:39 PM 71.6 °F - 71.6 °F 100% 29.96 in 2.0 mi West 6.9 mph - N/A Rain , Thunderstorm Light Thunderstorms and Rain
12:40 PM 71.6 °F - 71.6 °F 100% 29.96 in 3.0 mi West 5.8 mph - N/A Rain , Thunderstorm Light Thunderstorms and Rain
12:55 PM 72.7 °F - 72.7 °F 100% 29.96 in 5.0 mi WNW 19.6 mph 27.6 mph 0.81 in Rain , Thunderstorm Heavy Thunderstorms and Rain
12:58 PM 71.6 °F - 71.6 °F 100% 29.95 in 2.5 mi NW 15.0 mph 27.6 mph N/A Rain , Thunderstorm Heavy Thunderstorms and Rain
1:01 PM 71.6 °F - 71.6 °F 100% 29.95 in 2.0 mi NW 9.2 mph 27.6 mph N/A Rain , Thunderstorm Heavy Thunderstorms and Rain
1:02 PM 71.6 °F - 71.6 °F 100% 29.95 in 1.8 mi NW 8.1 mph 27.6 mph N/A Rain , Thunderstorm Heavy Thunderstorms and Rain
1:03 PM 71.6 °F - 71.6 °F 100% 29.95 in 1.8 mi NW 9.2 mph 27.6 mph N/A Rain , Thunderstorm Heavy Thunderstorms and Rain
1:04 PM 71.6 °F - 71.6 °F 100% 29.94 in 1.8 mi NW 11.5 mph 27.6 mph N/A Rain , Thunderstorm Heavy Thunderstorms and Rain
1:05 PM 71.6 °F - 71.6 °F 100% 29.94 in 2.0 mi NW 12.7 mph 27.6 mph N/A Rain , Thunderstorm Heavy Thunderstorms and Rain
1:07 PM 73.4 °F - 73.4 °F 100% 29.94 in 2.5 mi NW 12.7 mph - N/A Rain , Thunderstorm Light Thunderstorms and Rain
1:08 PM 73.4 °F - 73.4 °F 100% 29.94 in 3.0 mi WNW 13.8 mph - N/A Rain , Thunderstorm Light Thunderstorms and Rain
1:17 PM 73.4 °F - 73.4 °F 100% 29.94 in 10.0 mi WNW 10.4 mph - N/A Thunderstorm Thunderstorm
1:36 PM 75.2 °F - 75.2 °F 100% 29.94 in 10.0 mi WSW 6.9 mph - N/A Thunderstorm Clear
1:44 PM 75.2 °F - 75.2 °F 100% 29.93 in 10.0 mi West 8.1 mph - N/A Rain , Thunderstorm Heavy Rain
1:55 PM 76.1 °F - 76.1 °F 100% 29.93 in 5.0 mi West 9.2 mph - 0.23 in Rain , Thunderstorm Light Rain
1:56 PM 77.0 °F - 77.0 °F 100% 29.93 in 5.0 mi West 9.2 mph - N/A Thunderstorm Partly Cloudy
2:15 PM 77.0 °F - 77.0 °F 100% 29.95 in 10.0 mi NNW 10.4 mph 17.3 mph N/A   Mostly Cloudy
2:16 PM 77.0 °F - 77.0 °F 100% 29.94 in 10.0 mi North 10.4 mph 17.3 mph N/A Rain Light Rain
2:26 PM 75.2 °F - 75.2 °F 100% 29.95 in 4.0 mi NNW 17.3 mph 21.9 mph N/A Rain Heavy Rain
2:27 PM 75.2 °F - 75.2 °F 100% 29.95 in 4.0 mi North 15.0 mph 21.9 mph N/A Rain Heavy Rain
2:28 PM 75.2 °F - 75.2 °F 100% 29.95 in 4.0 mi North 15.0 mph 21.9 mph N/A Rain Heavy Rain
2:38 PM 75.2 °F - 75.2 °F 100% 29.94 in 10.0 mi North 9.2 mph 24.2 mph N/A Rain , Thunderstorm Light Thunderstorms and Rain
2:55 PM 74.5 °F - 74.5 °F 100% 29.95 in 5.0 mi NNW 5.8 mph - 0.12 in Rain , Thunderstorm Heavy Thunderstorms and Rain
2:57 PM 73.4 °F - 73.4 °F 100% 29.95 in 5.0 mi NW 5.8 mph - N/A Rain Rain
3:19 PM 73.4 °F - 73.4 °F 100% 29.93 in 8.0 mi WNW 4.6 mph - N/A   Scattered Clouds
3:23 PM 73.4 °F - 73.4 °F 100% 29.93 in 10.0 mi NW 5.8 mph - N/A Rain Light Rain
3:44 PM 73.4 °F - 73.4 °F 100% 29.92 in 10.0 mi WNW 5.8 mph - N/A   Clear
3:47 PM 73.4 °F - 73.4 °F 100% 29.92 in 10.0 mi WNW 4.6 mph - N/A   Light Drizzle
3:55 PM 74.8 °F - 74.8 °F 100% 29.93 in 10.0 mi NNW 5.8 mph - 0.08 in   Light Drizzle
4:12 PM 75.2 °F - 75.2 °F 100% 29.92 in 10.0 mi NW 4.6 mph - N/A   Clear
4:55 PM 76.8 °F - 76.8 °F 100% 29.92 in 10.0 mi WNW 5.8 mph - 0.00 in   Scattered Clouds
5:55 PM 77.4 °F - 77.4 °F 100% 29.90 in 10.0 mi SW 8.1 mph - N/A   Scattered Clouds
6:55 PM 77.5 °F - 77.5 °F 100% 29.90 in 10.0 mi SW 9.2 mph - N/A   Partly Cloudy
7:55 PM 76.6 °F - 76.6 °F 100% 29.91 in 10.0 mi WSW 10.4 mph - N/A   Clear
8:15 PM 77.0 °F - 77.0 °F 100% 29.92 in 10.0 mi West 8.1 mph - N/A   Light Drizzle
8:55 PM 76.6 °F - 76.6 °F 100% 29.94 in 10.0 mi WSW 6.9 mph - 0.01 in   Light Drizzle
9:15 PM 77.0 °F - 77.0 °F 100% 29.94 in 10.0 mi WSW 8.1 mph - N/A   Clear
9:36 PM 77.0 °F - 77.0 °F 100% 29.95 in 10.0 mi West 11.5 mph - N/A   Light Drizzle
9:50 PM 77.0 °F - 77.0 °F 100% 29.96 in 10.0 mi West 10.4 mph - N/A   Clear
9:51 PM 77.0 °F - 77.0 °F 100% 29.96 in 10.0 mi West 11.5 mph - N/A   Light Drizzle
9:55 PM 77.2 °F - 77.2 °F 100% 29.96 in 10.0 mi West 11.5 mph - 0.00 in   Light Drizzle
10:02 PM 77.0 °F - 77.0 °F 100% 29.96 in 10.0 mi West 15.0 mph - N/A   Partly Cloudy
10:55 PM 78.1 °F - 78.1 °F 100% 29.96 in 10.0 mi West 12.7 mph - 0.00 in   Partly Cloudy
11:55 PM 78.3 °F - 75.6 °F 91% 29.93 in 10.0 mi WNW 12.7 mph - N/A   Partly Cloudy